This is the latest recevied weather packets stored in our database for station/object SR3WXA. If no packets are shown the sender has not sent any weather packets the latest 10 day(s).
| Time | Temp. | Humidity | Pressure | Rain* | Wind** | Luminosity | Snow |
|---|---|---|---|---|---|---|---|
| 1778062033 | 16.11° C | 79% | 1005.4 hPa | 0 mm | - | 318 W/m² | - |
| 1778061735 | 15.56° C | 78% | 1005.6 hPa | 0 mm | - | 211 W/m² | - |
| 1778061696 | 15.56° C | 78% | 1005.6 hPa | 0 mm | - | 211 W/m² | - |
| 1778061396 | 15.56° C | 79% | 1005.5 hPa | 0 mm | - | 162 W/m² | - |
| 1778060796 | 15.56° C | 80% | 1005.5 hPa | 0 mm | - | 858 W/m² | - |
| 1778060227 | 15° C | 79% | 1005.4 hPa | 0 mm | - | 360 W/m² | - |
| 1778060196 | 15° C | 79% | 1005.4 hPa | 0 mm | - | 360 W/m² | - |
| 1778059896 | 15° C | 80% | 1005.5 hPa | 0 mm | - | 795 W/m² | - |
| 1778059406 | 15° C | 80% | 1005.6 hPa | 0 mm | - | 290 W/m² | - |
| 1778057918 | 14.44° C | 81% | 1005.4 hPa | 0 mm | - | 425 W/m² | - |
| 1778056477 | 13.89° C | 81% | 1005.5 hPa | 0 mm | - | 243 W/m² | - |
| 1778056425 | 13.89° C | 81% | 1005.5 hPa | 0 mm | - | 243 W/m² | - |
| 1778056125 | 13.89° C | 81% | 1005.5 hPa | 0 mm | - | 230 W/m² | - |
| 1778055825 | 13.89° C | 81% | 1005.5 hPa | 0 mm | - | 267 W/m² | - |
| 1778055591 | 13.89° C | 80% | 1005.5 hPa | 0 mm | - | 325 W/m² | - |
| 1778055525 | 13.89° C | 80% | 1005.5 hPa | 0 mm | - | 325 W/m² | - |
| 1778055226 | 13.89° C | 80% | 1005.4 hPa | 0 mm | - | 237 W/m² | - |
| 1778054966 | 13.89° C | 81% | 1005.4 hPa | 0 mm | - | 659 W/m² | - |
| 1778054925 | 13.89° C | 81% | 1005.4 hPa | 0 mm | - | 659 W/m² | - |
| 1778054358 | 13.89° C | 83% | 1005.1 hPa | 0 mm | - | 594 W/m² | - |
| 1778053726 | 12.78° C | 87% | 1005.2 hPa | 0 mm | - | 536 W/m² | - |
| 1778053457 | 12.78° C | 86% | 1005.3 hPa | 0 mm | - | 529 W/m² | - |
| 1778053125 | 12.22° C | 86% | 1005.3 hPa | 0 mm | - | 171 W/m² | - |
| 1778052825 | 12.22° C | 87% | 1005.3 hPa | 0 mm | - | 199 W/m² | - |
| 1778052525 | 12.22° C | 87% | 1005.2 hPa | 0 mm | - | 350 W/m² | - |
* Rain latest hour (hover to see other rain measurements)
** Current wind speed in m/s (hover to see current wind gust speed)